{"data":{"norad_id":67667,"intl_designator":"2026-022V","name":"STARLINK-36622","alt_names":[],"object_type":"PAYLOAD","status":"ACTIVE","operator":null,"country":"US","launch_date":"2026-02-02","launch_site_code":"AFWTR","launch_vehicle":null,"mission":null,"orbit_class":"UNKNOWN","rcs_meters":null,"size_class":null,"mass_kg":null,"dimensions":null,"purposes":["comms"],"wikipedia_slug":null,"has_3d_model":false,"image_url":null,"decayed_at":null,"tle_current":{"epoch":"2026-05-24T23:40:48.446976Z","epoch_age_seconds":66380,"freshness":"FRESH","line1":"1 67667U 26022V   26144.98667184  .00020239  00000+0  62715-3 0  9999","line2":"2 67667  97.2856 178.2182 0001943 129.2269 230.9147 15.33465023 17262","mean_motion":15.33465023,"eccentricity":0.0001943,"inclination_deg":97.2856,"raan_deg":178.2182,"arg_perigee_deg":129.2269,"mean_anomaly_deg":230.9147,"bstar":0.00062715,"rev_number":1726,"period_min":93.904978490012,"perigee_km":464.15388528302,"apogee_km":466.81331624848,"semimajor_km":6843.6206007657,"source":"CELESTRAK","updated_at":"2026-05-25T13:38:21.660858Z"}}}